Time,TemperatureF,DewpointF,PressureIn,WindDirection,WindDirectionDegrees,WindSpeedMPH,WindSpeedGustMPH,Humidity,HourlyPrecipIn,Conditions,Clouds,dailyrainin,SoftwareType,DateUTC
2013-04-03 00:05:00,58.0,52.9,29.79,SW,234,4.0,4.0,83,0.00,,,0.00,Wunderground v.1.15,2013-04-02 22:05:00,
2013-04-03 00:10:00,58.0,52.5,29.79,WSW,238,4.0,5.0,82,0.00,,,0.00,Wunderground v.1.15,2013-04-02 22:10:00,
2013-04-03 00:15:00,58.0,52.2,29.79,WSW,243,4.0,4.0,81,0.00,,,0.00,Wunderground v.1.15,2013-04-02 22:15:00,
2013-04-03 00:20:00,58.2,52.4,29.79,WSW,243,4.0,4.0,81,0.00,,,0.00,Wunderground v.1.15,2013-04-02 22:20:00,
2013-04-03 00:30:00,58.4,52.6,29.79,WSW,243,2.0,3.0,81,0.00,,,0.00,Wunderground v.1.15,2013-04-02 22:30:00,
2013-04-03 00:40:00,56.8,50.4,29.79,WSW,244,2.0,3.0,79,0.00,,,0.00,Wunderground v.1.15,2013-04-02 22:40:00,
2013-04-03 00:45:00,56.5,50.4,29.79,NNW,347,2.0,3.0,80,0.00,,,0.00,Wunderground v.1.15,2013-04-02 22:45:00,
2013-04-03 00:54:00,55.7,49.6,29.80,North,349,2.0,2.0,80,0.00,,,0.00,Wunderground v.1.15,2013-04-02 22:54:00,
2013-04-03 01:00:00,55.4,49.7,29.80,North,349,1.0,3.0,81,0.00,,,0.00,Wunderground v.1.15,2013-04-02 23:00:00,
2013-04-03 01:10:00,55.3,49.9,29.80,WNW,302,2.0,4.0,82,0.00,,,0.00,Wunderground v.1.15,2013-04-02 23:10:00,
2013-04-03 01:15:00,55.6,50.2,29.80,WNW,302,1.0,1.0,82,0.00,,,0.00,Wunderground v.1.15,2013-04-02 23:15:00,
2013-04-03 01:25:00,56.3,50.9,29.80,WNW,302,2.0,2.0,82,0.00,,,0.00,Wunderground v.1.15,2013-04-02 23:25:00,
2013-04-03 01:30:00,56.7,51.3,29.80,WSW,252,2.0,3.0,82,0.00,,,0.00,Wunderground v.1.15,2013-04-02 23:30:00,
2013-04-03 01:40:00,57.7,52.2,29.80,West,265,5.0,6.0,82,0.00,,,0.00,Wunderground v.1.15,2013-04-02 23:40:00,
2013-04-03 01:50:00,56.9,50.8,29.80,North,350,5.0,5.0,80,0.00,,,0.00,Wunderground v.1.15,2013-04-02 23:50:00,
2013-04-03 02:00:00,56.5,50.7,29.79,West,281,3.0,3.0,81,0.00,,,0.00,Wunderground v.1.15,2013-04-03 00:00:00,
2013-04-03 02:09:00,56.6,50.5,29.80,West,260,2.0,2.0,80,0.00,,,0.00,Wunderground v.1.15,2013-04-03 00:09:00,
2013-04-03 02:14:00,56.5,49.7,29.80,NNW,340,2.0,2.0,78,0.00,,,0.00,Wunderground v.1.15,2013-04-03 00:14:00,
2013-04-03 02:20:00,55.8,49.0,29.80,NE,54,3.0,6.0,78,0.00,,,0.00,Wunderground v.1.15,2013-04-03 00:20:00,
2013-04-03 02:34:00,54.9,49.2,29.79,ENE,57,0.0,0.0,81,0.00,,,0.00,Wunderground v.1.15,2013-04-03 00:34:00,
2013-04-03 02:40:00,54.8,49.1,29.79,ENE,57,0.0,0.0,81,0.00,,,0.00,Wunderground v.1.15,2013-04-03 00:40:00,
2013-04-03 02:49:00,54.2,48.5,29.79,NNE,13,1.0,1.0,81,0.00,,,0.00,Wunderground v.1.15,2013-04-03 00:49:00,
2013-04-03 03:00:00,54.6,48.6,29.79,NNW,328,1.0,3.0,80,0.00,,,0.00,Wunderground v.1.15,2013-04-03 01:00:00,
2013-04-03 03:09:00,54.9,47.8,29.79,NNW,333,3.0,3.0,77,0.00,,,0.00,Wunderground v.1.15,2013-04-03 01:09:00,
2013-04-03 03:14:00,55.0,47.9,29.79,NNW,342,2.0,3.0,77,0.00,,,0.00,Wunderground v.1.15,2013-04-03 01:14:00,
2013-04-03 03:20:00,55.0,48.3,29.79,North,5,2.0,2.0,78,0.00,,,0.00,Wunderground v.1.15,2013-04-03 01:20:00,
2013-04-03 03:30:00,55.0,48.3,29.78,North,5,0.0,0.0,78,0.00,,,0.00,Wunderground v.1.15,2013-04-03 01:30:00,
2013-04-03 03:39:00,55.3,48.2,29.78,North,5,0.0,2.0,77,0.00,,,0.00,Wunderground v.1.15,2013-04-03 01:39:00,
2013-04-03 03:44:00,55.7,48.6,29.78,North,5,1.0,1.0,77,0.00,,,0.00,Wunderground v.1.15,2013-04-03 01:44:00,
2013-04-03 03:54:00,56.0,48.5,29.78,North,5,1.0,1.0,76,0.00,,,0.00,Wunderground v.1.15,2013-04-03 01:54:00,
2013-04-03 03:59:00,55.8,48.0,29.78,North,5,0.0,0.0,75,0.00,,,0.00,Wunderground v.1.15,2013-04-03 01:59:00,
2013-04-03 04:09:00,55.5,47.7,29.78,North,5,0.0,0.0,75,0.00,,,0.00,Wunderground v.1.15,2013-04-03 02:09:00,
2013-04-03 04:19:00,55.3,47.2,29.78,North,5,0.0,0.0,74,0.00,,,0.00,Wunderground v.1.15,2013-04-03 02:19:00,
2013-04-03 04:30:00,55.1,47.0,29.78,North,5,1.0,1.0,74,0.00,,,0.00,Wunderground v.1.15,2013-04-03 02:30:00,
2013-04-03 04:40:00,55.3,46.8,29.78,North,5,0.0,0.0,73,0.00,,,0.00,Wunderground v.1.15,2013-04-03 02:40:00,
2013-04-03 04:50:00,54.9,46.0,29.78,North,5,1.0,2.0,72,0.00,,,0.00,Wunderground v.1.15,2013-04-03 02:50:00,
2013-04-03 05:00:00,54.9,46.4,29.78,North,5,1.0,1.0,73,0.00,,,0.00,Wunderground v.1.15,2013-04-03 03:00:00,
2013-04-03 05:10:00,54.2,45.7,29.77,North,5,1.0,3.0,73,0.00,,,0.00,Wunderground v.1.15,2013-04-03 03:10:00,
2013-04-03 05:15:00,53.5,45.4,29.77,North,5,2.0,3.0,74,0.00,,,0.00,Wunderground v.1.15,2013-04-03 03:15:00,
2013-04-03 05:25:00,53.0,45.6,29.77,NNE,30,3.0,3.0,76,0.00,,,0.00,Wunderground v.1.15,2013-04-03 03:25:00,
2013-04-03 05:30:00,52.7,45.7,29.76,NNE,30,2.0,3.0,77,0.00,,,0.00,Wunderground v.1.15,2013-04-03 03:30:00,
2013-04-03 05:40:00,52.6,45.9,29.76,NNE,30,2.0,3.0,78,0.00,,,0.00,Wunderground v.1.15,2013-04-03 03:40:00,
2013-04-03 05:50:00,51.2,44.6,29.76,NE,55,4.0,4.0,78,0.00,,,0.00,Wunderground v.1.15,2013-04-03 03:50:00,
2013-04-03 05:55:00,50.8,44.5,29.76,NE,55,3.0,3.0,79,0.00,,,0.00,Wunderground v.1.15,2013-04-03 03:55:00,
2013-04-03 06:00:00,50.6,44.3,29.76,NE,55,3.0,3.0,79,0.00,,,0.00,Wunderground v.1.15,2013-04-03 04:00:00,
2013-04-03 06:05:00,50.5,44.6,29.76,NE,55,2.0,3.0,80,0.00,,,0.00,Wunderground v.1.15,2013-04-03 04:05:00,
2013-04-03 06:10:00,50.6,44.7,29.76,NE,55,0.0,0.0,80,0.00,,,0.00,Wunderground v.1.15,2013-04-03 04:10:00,
2013-04-03 06:15:00,50.6,44.7,29.76,NE,55,0.0,1.0,80,0.00,,,0.00,Wunderground v.1.15,2013-04-03 04:15:00,
2013-04-03 06:20:00,50.9,44.9,29.76,NE,55,1.0,2.0,80,0.00,,,0.00,Wunderground v.1.15,2013-04-03 04:20:00,
2013-04-03 06:30:00,51.0,45.0,29.76,NE,55,2.0,2.0,80,0.00,,,0.00,Wunderground v.1.15,2013-04-03 04:30:00,
2013-04-03 06:40:00,50.7,44.4,29.76,NE,55,0.0,0.0,79,0.00,,,0.00,Wunderground v.1.15,2013-04-03 04:40:00,
2013-04-03 06:45:00,50.8,44.9,29.76,NE,55,0.0,1.0,80,0.00,,,0.00,Wunderground v.1.15,2013-04-03 04:45:00,
2013-04-03 06:50:00,50.6,44.7,29.76,NE,55,2.0,2.0,80,0.00,,,0.00,Wunderground v.1.15,2013-04-03 04:50:00,
2013-04-03 07:04:00,50.1,44.2,29.76,NE,55,3.0,4.0,80,0.00,,,0.00,Wunderground v.1.15,2013-04-03 05:04:00,
2013-04-03 07:10:00,49.7,43.8,29.76,NE,55,3.0,4.0,80,0.00,,,0.00,Wunderground v.1.15,2013-04-03 05:10:00,
2013-04-03 07:20:00,49.8,44.2,29.76,NE,55,1.0,3.0,81,0.00,,,0.00,Wunderground v.1.15,2013-04-03 05:20:00,
2013-04-03 07:30:00,50.0,44.4,29.77,NE,55,1.0,1.0,81,0.00,,,0.00,Wunderground v.1.15,2013-04-03 05:30:00,
2013-04-03 07:40:00,49.8,43.9,29.77,NE,55,2.0,2.0,80,0.00,,,0.00,Wunderground v.1.15,2013-04-03 05:40:00,
2013-04-03 07:45:00,49.4,43.5,29.77,NE,55,3.0,3.0,80,0.00,,,0.00,Wunderground v.1.15,2013-04-03 05:45:00,
2013-04-03 07:50:00,49.2,43.3,29.77,NE,55,4.0,4.0,80,0.00,,,0.00,Wunderground v.1.15,2013-04-03 05:50:00,
2013-04-03 08:04:00,49.0,43.1,29.77,NE,55,4.0,4.0,80,0.00,,,0.00,Wunderground v.1.15,2013-04-03 06:04:00,
2013-04-03 08:10:00,49.3,43.4,29.77,NE,55,4.0,6.0,80,0.00,,,0.00,Wunderground v.1.15,2013-04-03 06:10:00,
2013-04-03 08:15:00,49.5,43.6,29.77,NE,55,4.0,4.0,80,0.00,,,0.00,Wunderground v.1.15,2013-04-03 06:15:00,
2013-04-03 08:24:00,49.4,43.5,29.77,NE,55,3.0,3.0,80,0.00,,,0.00,Wunderground v.1.15,2013-04-03 06:24:00,
2013-04-03 08:30:00,49.6,43.4,29.77,NE,55,3.0,3.0,79,0.00,,,0.00,Wunderground v.1.15,2013-04-03 06:30:00,
2013-04-03 08:39:00,50.1,43.5,29.77,NE,55,3.0,3.0,78,0.00,,,0.00,Wunderground v.1.15,2013-04-03 06:39:00,
2013-04-03 08:49:00,50.6,44.3,29.77,NE,55,3.0,3.0,79,0.00,,,0.00,Wunderground v.1.15,2013-04-03 06:49:00,
2013-04-03 08:59:00,51.5,44.5,29.77,NE,55,2.0,2.0,77,0.00,,,0.00,Wunderground v.1.15,2013-04-03 06:59:00,
2013-04-03 09:09:00,52.2,44.9,29.77,NE,55,3.0,4.0,76,0.00,,,0.00,Wunderground v.1.15,2013-04-03 07:09:00,
2013-04-03 09:14:00,52.6,45.2,29.77,NE,55,3.0,4.0,76,0.00,,,0.00,Wunderground v.1.15,2013-04-03 07:14:00,
2013-04-03 09:24:00,53.5,46.1,29.77,NE,55,2.0,3.0,76,0.00,,,0.00,Wunderground v.1.15,2013-04-03 07:24:00,
2013-04-03 09:31:00,54.1,46.3,29.77,NE,55,2.0,3.0,75,0.00,,,0.00,Wunderground v.1.15,2013-04-03 07:31:00,
2013-04-03 09:40:00,55.4,47.2,29.77,NE,55,1.0,3.0,74,0.00,,,0.00,Wunderground v.1.15,2013-04-03 07:40:00,
2013-04-03 09:50:00,56.4,47.9,29.77,NE,55,1.0,1.0,73,0.00,,,0.00,Wunderground v.1.15,2013-04-03 07:50:00,
2013-04-03 09:55:00,57.0,48.4,29.77,NE,55,0.0,1.0,73,0.00,,,0.00,Wunderground v.1.15,2013-04-03 07:55:00,
2013-04-03 10:00:00,57.6,49.0,29.77,NE,55,1.0,1.0,73,0.00,,,0.00,Wunderground v.1.15,2013-04-03 08:00:00,
2013-04-03 10:10:00,58.8,49.8,29.76,NE,55,0.0,1.0,72,0.00,,,0.00,Wunderground v.1.15,2013-04-03 08:10:00,
2013-04-03 10:15:00,59.5,50.5,29.76,NE,55,0.0,0.0,72,0.00,,,0.00,Wunderground v.1.15,2013-04-03 08:15:00,
2013-04-03 10:25:00,60.8,51.0,29.76,NE,55,0.0,0.0,70,0.00,,,0.00,Wunderground v.1.15,2013-04-03 08:25:00,
2013-04-03 10:30:00,60.8,50.6,29.76,NE,55,0.0,0.0,69,0.00,,,0.00,Wunderground v.1.15,2013-04-03 08:30:00,
2013-04-03 10:40:00,60.4,50.2,29.76,NE,55,0.0,1.0,69,0.00,,,0.00,Wunderground v.1.15,2013-04-03 08:40:00,
2013-04-03 10:45:00,60.3,50.1,29.76,NE,55,1.0,1.0,69,0.00,,,0.00,Wunderground v.1.15,2013-04-03 08:45:00,
2013-04-03 10:50:00,60.4,50.6,29.76,NE,55,1.0,1.0,70,0.00,,,0.00,Wunderground v.1.15,2013-04-03 08:50:00,
2013-04-03 11:10:00,60.5,49.5,29.75,NE,55,1.0,2.0,67,0.00,,,0.00,Wunderground v.1.15,2013-04-03 09:10:00,
2013-04-03 11:20:00,60.6,49.6,29.75,NE,55,2.0,2.0,67,0.00,,,0.00,Wunderground v.1.15,2013-04-03 09:20:00,
2013-04-03 11:25:00,60.6,49.6,29.75,NE,55,2.0,3.0,67,0.00,,,0.00,Wunderground v.1.15,2013-04-03 09:25:00,
2013-04-03 11:35:00,60.8,49.8,29.76,NE,55,2.0,2.0,67,0.00,,,0.00,Wunderground v.1.15,2013-04-03 09:35:00,
2013-04-03 11:40:00,60.6,49.6,29.75,NE,55,2.0,2.0,67,0.00,,,0.00,Wunderground v.1.15,2013-04-03 09:40:00,
2013-04-03 11:45:00,60.4,50.6,29.75,NE,55,3.0,3.0,70,0.00,,,0.00,Wunderground v.1.15,2013-04-03 09:45:00,
2013-04-03 11:50:00,60.4,50.2,29.75,NE,55,2.0,3.0,69,0.00,,,0.00,Wunderground v.1.15,2013-04-03 09:50:00,
2013-04-03 12:05:00,60.8,51.0,29.75,NE,55,2.0,2.0,70,0.00,,,0.00,Wunderground v.1.15,2013-04-03 10:05:00,
2013-04-03 12:10:00,60.7,50.9,29.74,NE,55,2.0,3.0,70,0.00,,,0.00,Wunderground v.1.15,2013-04-03 10:10:00,
2013-04-03 12:15:00,60.6,51.1,29.74,NE,55,2.0,2.0,71,0.00,,,0.00,Wunderground v.1.15,2013-04-03 10:15:00,
2013-04-03 12:25:00,60.3,51.6,29.74,NE,55,3.0,3.0,73,0.00,,,0.00,Wunderground v.1.15,2013-04-03 10:25:00,
2013-04-03 12:30:00,60.8,52.8,29.74,ENE,59,3.0,3.0,75,0.00,,,0.00,Wunderground v.1.15,2013-04-03 10:30:00,
2013-04-03 12:40:00,61.2,53.9,29.74,SW,222,4.0,4.0,77,0.00,,,0.00,Wunderground v.1.15,2013-04-03 10:40:00,
2013-04-03 12:45:00,61.1,54.5,29.74,SW,225,4.0,4.0,79,0.00,,,0.00,Wunderground v.1.15,2013-04-03 10:45:00,
2013-04-03 12:50:00,61.1,54.9,29.74,SW,236,4.0,6.0,80,0.00,,,0.00,Wunderground v.1.15,2013-04-03 10:50:00,
2013-04-03 13:00:00,60.8,54.2,29.73,SSW,209,3.0,4.0,79,0.00,,,0.00,Wunderground v.1.15,2013-04-03 11:00:00,
2013-04-03 13:10:00,60.7,53.8,29.73,SSW,203,4.0,4.0,78,0.00,,,0.00,Wunderground v.1.15,2013-04-03 11:10:00,
2013-04-03 13:15:00,60.9,53.6,29.73,SW,234,4.0,4.0,77,0.00,,,0.00,Wunderground v.1.15,2013-04-03 11:15:00,
2013-04-03 13:20:00,61.1,53.5,29.73,SSW,213,4.0,5.0,76,0.00,,,0.00,Wunderground v.1.15,2013-04-03 11:20:00,
2013-04-03 13:30:00,61.3,54.0,29.73,SW,232,4.0,4.0,77,0.00,,,0.00,Wunderground v.1.15,2013-04-03 11:30:00,
2013-04-03 13:40:00,61.4,53.0,29.72,South,182,4.0,4.0,74,0.00,,,0.00,Wunderground v.1.15,2013-04-03 11:40:00,
2013-04-03 13:45:00,61.4,53.0,29.72,SW,223,4.0,5.0,74,0.00,,,0.00,Wunderground v.1.15,2013-04-03 11:45:00,
2013-04-03 13:55:00,61.7,53.3,29.71,South,188,5.0,5.0,74,0.00,,,0.00,Wunderground v.1.15,2013-04-03 11:55:00,
2013-04-03 14:05:00,62.3,53.2,29.70,South,183,4.0,6.0,72,0.00,,,0.00,Wunderground v.1.15,2013-04-03 12:05:00,
2013-04-03 14:10:00,62.7,52.8,29.70,South,188,5.0,6.0,70,0.00,,,0.00,Wunderground v.1.15,2013-04-03 12:10:00,
2013-04-03 14:20:00,63.7,50.9,29.70,SSE,165,6.0,8.0,63,0.00,,,0.00,Wunderground v.1.15,2013-04-03 12:20:00,
2013-04-03 14:25:00,64.0,50.7,29.70,SSE,165,7.0,7.0,62,0.00,,,0.00,Wunderground v.1.15,2013-04-03 12:25:00,
2013-04-03 14:35:00,64.2,50.0,29.70,South,179,7.0,7.0,60,0.00,,,0.00,Wunderground v.1.15,2013-04-03 12:35:00,
2013-04-03 14:40:00,64.3,50.1,29.70,South,178,6.0,7.0,60,0.00,,,0.00,Wunderground v.1.15,2013-04-03 12:40:00,
2013-04-03 14:50:00,64.2,50.0,29.70,SSW,202,6.0,6.0,60,0.00,,,0.00,Wunderground v.1.15,2013-04-03 12:50:00,
2013-04-03 15:00:00,64.4,50.7,29.69,SSE,162,6.0,6.0,61,0.00,,,0.00,Wunderground v.1.15,2013-04-03 13:00:00,
2013-04-03 15:10:00,64.4,49.8,29.69,South,179,6.0,6.0,59,0.00,,,0.00,Wunderground v.1.15,2013-04-03 13:10:00,
2013-04-03 15:15:00,64.4,49.8,29.68,South,186,6.0,6.0,59,0.00,,,0.00,Wunderground v.1.15,2013-04-03 13:15:00,
2013-04-03 15:25:00,64.7,50.0,29.68,South,179,5.0,7.0,59,0.00,,,0.00,Wunderground v.1.15,2013-04-03 13:25:00,
2013-04-03 15:35:00,64.8,49.7,29.68,South,173,5.0,5.0,58,0.00,,,0.00,Wunderground v.1.15,2013-04-03 13:35:00,
2013-04-03 15:40:00,64.8,49.7,29.67,South,183,5.0,5.0,58,0.00,,,0.00,Wunderground v.1.15,2013-04-03 13:40:00,
2013-04-03 15:45:00,64.7,49.6,29.67,South,169,5.0,6.0,58,0.00,,,0.00,Wunderground v.1.15,2013-04-03 13:45:00,
2013-04-03 15:55:00,64.2,49.6,29.66,South,178,6.0,6.0,59,0.00,,,0.00,Wunderground v.1.15,2013-04-03 13:55:00,
2013-04-03 16:05:00,64.3,49.2,29.66,SSE,152,4.0,4.0,58,0.00,,,0.00,Wunderground v.1.15,2013-04-03 14:05:00,
2013-04-03 16:10:00,64.4,49.8,29.66,SSE,167,4.0,4.0,59,0.00,,,0.00,Wunderground v.1.15,2013-04-03 14:10:00,
2013-04-03 16:20:00,64.5,50.3,29.66,SSW,201,5.0,7.0,60,0.00,,,0.00,Wunderground v.1.15,2013-04-03 14:20:00,
2013-04-03 16:30:00,64.3,49.7,29.66,SSE,165,7.0,8.0,59,0.00,,,0.00,Wunderground v.1.15,2013-04-03 14:30:00,
2013-04-03 16:40:00,64.4,49.8,29.65,South,170,7.0,7.0,59,0.00,,,0.00,Wunderground v.1.15,2013-04-03 14:40:00,
2013-04-03 16:50:00,64.8,49.7,29.65,SE,127,6.0,6.0,58,0.00,,,0.00,Wunderground v.1.15,2013-04-03 14:50:00,
2013-04-03 17:05:00,65.2,49.1,29.64,SSE,153,5.0,5.0,56,0.00,,,0.00,Wunderground v.1.15,2013-04-03 15:05:00,
2013-04-03 17:10:00,65.0,49.4,29.64,SSE,163,4.0,5.0,57,0.00,,,0.00,Wunderground v.1.15,2013-04-03 15:10:00,
2013-04-03 17:20:00,64.7,49.6,29.64,SSE,159,4.0,5.0,58,0.00,,,0.00,Wunderground v.1.15,2013-04-03 15:20:00,
2013-04-03 17:35:00,65.6,50.0,29.63,SSE,163,3.0,6.0,57,0.00,,,0.00,Wunderground v.1.15,2013-04-03 15:35:00,
2013-04-03 17:40:00,65.5,50.8,29.63,SSE,165,4.0,6.0,59,0.00,,,0.00,Wunderground v.1.15,2013-04-03 15:40:00,
2013-04-03 17:45:00,65.4,51.6,29.63,SSE,161,4.0,5.0,61,0.00,,,0.00,Wunderground v.1.15,2013-04-03 15:45:00,
2013-04-03 17:54:00,64.9,51.6,29.62,South,184,4.0,5.0,62,0.00,,,0.00,Wunderground v.1.15,2013-04-03 15:54:00,
2013-04-03 18:04:00,65.2,51.0,29.62,SE,141,3.0,3.0,60,0.00,,,0.00,Wunderground v.1.15,2013-04-03 16:04:00,
2013-04-03 18:10:00,65.5,50.8,29.62,South,185,3.0,3.0,59,0.00,,,0.00,Wunderground v.1.15,2013-04-03 16:10:00,
2013-04-03 18:15:00,65.6,50.4,29.62,SSE,157,3.0,4.0,58,0.00,,,0.00,Wunderground v.1.15,2013-04-03 16:15:00,
2013-04-03 18:20:00,65.4,49.8,29.61,South,169,3.0,7.0,57,0.00,,,0.00,Wunderground v.1.15,2013-04-03 16:20:00,
2013-04-03 18:45:00,65.9,46.2,29.61,ESE,109,2.0,2.0,49,0.00,,,0.00,Wunderground v.1.15,2013-04-03 16:45:00,
2013-04-03 18:50:00,65.8,45.6,29.60,SE,144,2.0,2.0,48,0.00,,,0.00,Wunderground v.1.15,2013-04-03 16:50:00,
2013-04-03 19:05:00,65.7,43.8,29.60,SSE,147,2.0,2.0,45,0.00,,,0.00,Wunderground v.1.15,2013-04-03 17:05:00,
2013-04-03 19:10:00,65.7,43.8,29.60,ESE,118,2.0,2.0,45,0.00,,,0.00,Wunderground v.1.15,2013-04-03 17:10:00,
2013-04-03 19:15:00,65.6,43.1,29.60,East,101,2.0,6.0,44,0.00,,,0.00,Wunderground v.1.15,2013-04-03 17:15:00,
2013-04-03 19:20:00,65.4,44.1,29.59,SE,134,3.0,3.0,46,0.00,,,0.00,Wunderground v.1.15,2013-04-03 17:20:00,
2013-04-03 19:30:00,65.1,45.5,29.59,East,93,5.0,8.0,49,0.00,,,0.00,Wunderground v.1.15,2013-04-03 17:30:00,
2013-04-03 19:40:00,64.6,45.5,29.59,ENE,78,6.0,6.0,50,0.00,,,0.00,Wunderground v.1.15,2013-04-03 17:40:00,
2013-04-03 19:45:00,64.4,45.9,29.59,East,88,6.0,6.0,51,0.00,,,0.00,Wunderground v.1.15,2013-04-03 17:45:00,
2013-04-03 19:54:00,64.0,45.5,29.59,ENE,74,4.0,6.0,51,0.00,,,0.00,Wunderground v.1.15,2013-04-03 17:54:00,
2013-04-03 20:04:00,63.6,46.6,29.59,East,98,4.0,6.0,54,0.00,,,0.00,Wunderground v.1.15,2013-04-03 18:04:00,
2013-04-03 20:10:00,63.4,46.5,29.59,East,85,5.0,6.0,54,0.00,,,0.00,Wunderground v.1.15,2013-04-03 18:10:00,
2013-04-03 20:15:00,63.3,46.4,29.59,ESE,106,4.0,7.0,54,0.00,,,0.00,Wunderground v.1.15,2013-04-03 18:15:00,
2013-04-03 20:24:00,63.1,45.7,29.58,East,80,4.0,4.0,53,0.00,,,0.00,Wunderground v.1.15,2013-04-03 18:24:00,
2013-04-03 20:30:00,62.9,45.5,29.58,East,88,3.0,6.0,53,0.00,,,0.00,Wunderground v.1.15,2013-04-03 18:30:00,
2013-04-03 20:40:00,62.2,46.8,29.59,ENE,67,4.0,5.0,57,0.00,,,0.00,Wunderground v.1.15,2013-04-03 18:40:00,
2013-04-03 20:50:00,61.4,47.4,29.58,ENE,67,4.0,7.0,60,0.00,,,0.00,Wunderground v.1.15,2013-04-03 18:50:00,
2013-04-03 21:00:00,60.5,48.7,29.59,NE,40,4.0,5.0,65,0.00,,,0.00,Wunderground v.1.15,2013-04-03 19:00:00,
2013-04-03 21:10:00,60.0,49.4,29.60,NE,47,3.0,5.0,68,0.00,,,0.00,Wunderground v.1.15,2013-04-03 19:10:00,
2013-04-03 21:15:00,60.0,49.4,29.61,NE,52,2.0,2.0,68,0.00,,,0.00,Wunderground v.1.15,2013-04-03 19:15:00,
2013-04-03 21:24:00,59.9,50.1,29.61,NE,55,2.0,2.0,70,0.00,,,0.00,Wunderground v.1.15,2013-04-03 19:24:00,
2013-04-03 21:30:00,59.8,50.0,29.62,NE,53,2.0,6.0,70,0.00,,,0.00,Wunderground v.1.15,2013-04-03 19:30:00,
2013-04-03 21:39:00,59.4,50.0,29.63,NE,53,3.0,4.0,71,0.00,,,0.00,Wunderground v.1.15,2013-04-03 19:39:00,
2013-04-03 21:45:00,59.4,50.4,29.63,NE,53,2.0,2.0,72,0.00,,,0.00,Wunderground v.1.15,2013-04-03 19:45:00,
2013-04-03 21:50:00,59.3,50.3,29.63,NE,53,2.0,5.0,72,0.00,,,0.00,Wunderground v.1.15,2013-04-03 19:50:00,
2013-04-03 22:04:00,58.8,50.5,29.63,NE,36,4.0,5.0,74,0.00,,,0.00,Wunderground v.1.15,2013-04-03 20:04:00,
2013-04-03 22:09:00,58.7,50.8,29.63,NE,36,4.0,5.0,75,0.00,,,0.00,Wunderground v.1.15,2013-04-03 20:09:00,
2013-04-03 22:14:00,58.6,50.7,29.63,NNE,24,4.0,6.0,75,0.00,,,0.00,Wunderground v.1.15,2013-04-03 20:14:00,
2013-04-03 22:20:00,58.4,50.9,29.63,NNE,28,5.0,6.0,76,0.00,,,0.00,Wunderground v.1.15,2013-04-03 20:20:00,
2013-04-03 22:30:00,58.5,51.0,29.63,NE,34,3.0,5.0,76,0.00,,,0.00,Wunderground v.1.15,2013-04-03 20:30:00,
2013-04-03 22:39:00,58.2,50.7,29.63,NNE,33,3.0,4.0,76,0.00,,,0.00,Wunderground v.1.15,2013-04-03 20:39:00,
2013-04-03 22:44:00,58.2,51.0,29.62,NE,38,4.0,4.0,77,0.00,,,0.00,Wunderground v.1.15,2013-04-03 20:44:00,
2013-04-03 22:49:00,58.2,51.0,29.61,NE,41,4.0,4.0,77,0.00,,,0.00,Wunderground v.1.15,2013-04-03 20:49:00,
2013-04-03 22:59:00,58.2,50.7,29.61,NE,38,3.0,3.0,76,0.00,,,0.00,Wunderground v.1.15,2013-04-03 20:59:00,
2013-04-03 23:09:00,58.1,50.9,29.61,NNE,30,4.0,4.0,77,0.00,,,0.00,Wunderground v.1.15,2013-04-03 21:09:00,
2013-04-03 23:14:00,58.0,50.8,29.61,NNE,30,4.0,4.0,77,0.00,,,0.00,Wunderground v.1.15,2013-04-03 21:14:00,
2013-04-03 23:19:00,57.9,50.7,29.61,NNE,30,4.0,4.0,77,0.00,,,0.00,Wunderground v.1.15,2013-04-03 21:19:00,
2013-04-03 23:35:00,58.0,50.8,29.61,NNE,29,3.0,3.0,77,0.00,,,0.00,Wunderground v.1.15,2013-04-03 21:35:00,
2013-04-03 23:40:00,58.0,50.8,29.61,NNE,30,3.0,6.0,77,0.00,,,0.00,Wunderground v.1.15,2013-04-03 21:40:00,
2013-04-03 23:50:00,58.1,50.9,29.62,NNE,28,4.0,4.0,77,0.00,,,0.00,Wunderground v.1.15,2013-04-03 21:50:00,